| time (UTC) | temp F | wind direction | speed MPH | gust MPH | rain 1hr in | rain 24hr in | rain mn in | humidity % | barometer mb |
| 20260506013939 | 72 | 160 | 2.0 | 6.0 | 0.00 | 0.00 | 0.00 | 72 | 1008.4 |
| 20260506013437 | 73 | 22 | 6.0 | 8.0 | 0.00 | 0.00 | 0.00 | 72 | 1008.0 |
| 20260506012933 | 73 | 150 | 1.0 | 6.0 | 0.00 | 0.00 | 0.00 | 72 | 1008.0 |
| 20260506012429 | 73 | 178 | 3.0 | 5.0 | 0.00 | 0.00 | 0.00 | 73 | 1008.0 |
| 20260506011926 | 73 | 220 | 1.0 | 6.0 | 0.00 | 0.00 | 0.00 | 72 | 1008.0 |
| 20260506011424 | 73 | 193 | 0.0 | 3.0 | 0.00 | 0.00 | 0.00 | 71 | 1007.7 |
| 20260506010920 | 73 | 312 | 5.0 | 8.0 | 0.00 | 0.00 | 0.00 | 71 | 1007.4 |
| 20260506010420 | 74 | 302 | 3.0 | 6.0 | 0.00 | 0.00 | 0.00 | 71 | 1007.7 |
| 20260506005915 | 74 | 14 | 3.0 | 5.0 | 0.00 | 0.00 | 0.00 | 71 | 1007.7 |
| 20260506005413 | 74 | 300 | 3.0 | 6.0 | 0.00 | 0.00 | 0.00 | 71 | 1007.7 |
| 20260506004908 | 75 | 51 | 4.0 | 6.0 | 0.00 | 0.00 | 0.00 | 71 | 1007.4 |
| 20260506004407 | 75 | 48 | 6.0 | 10.0 | 0.00 | 0.00 | 0.00 | 70 | 1007.4 |
| 20260506003902 | 75 | 262 | 2.0 | 9.0 | 0.00 | 0.00 | 0.00 | 70 | 1007.4 |
| 20260506003358 | 75 | 293 | 5.0 | 7.0 | 0.00 | 0.00 | 0.00 | 69 | 1007.0 |
| 20260506002855 | 76 | 19 | 2.0 | 5.0 | 0.00 | 0.00 | 0.00 | 68 | 1007.0 |
| 20260506002351 | 76 | 255 | 2.0 | 6.0 | 0.00 | 0.00 | 0.00 | 66 | 1007.4 |
| 20260506001847 | 76 | 53 | 1.0 | 5.0 | 0.00 | 0.00 | 0.00 | 66 | 1007.0 |
| 20260506001344 | 77 | 45 | 2.0 | 5.0 | 0.00 | 0.00 | 0.00 | 66 | 1006.7 |
| 20260506000841 | 77 | 159 | 1.0 | 3.0 | 0.00 | 0.00 | 0.00 | 66 | 1007.0 |
| 20260506000340 | 77 | 49 | 2.0 | 5.0 | 0.00 | 0.00 | 0.00 | 65 | 1007.0 |
| 20260505235835 | 77 | 147 | 3.0 | 9.0 | 0.00 | 0.00 | 0.00 | 65 | 1007.0 |
| 20260505235333 | 78 | 125 | 6.0 | 9.0 | 0.00 | 0.00 | 0.00 | 66 | 1007.0 |
| 20260505234830 | 78 | 184 | 2.0 | 6.0 | 0.00 | 0.00 | 0.00 | 66 | 1007.0 |
| 20260505234328 | 79 | 54 | 3.0 | 9.0 | 0.00 | 0.00 | 0.00 | 65 | 1006.7 |
| 20260505233824 | 79 | 139 | 4.0 | 9.0 | 0.00 | 0.00 | 0.00 | 65 | 1006.7 |
| 20260505233322 | 80 | 290 | 2.0 | 9.0 | 0.00 | 0.00 | 0.00 | 66 | 1006.3 |
| 20260505232819 | 80 | 192 | 3.0 | 10.0 | 0.00 | 0.00 | 0.00 | 65 | 1006.3 |
| 20260505232317 | 80 | 315 | 6.0 | 9.0 | 0.00 | 0.00 | 0.00 | 65 | 1006.7 |
| 20260505231813 | 81 | 327 | 1.0 | 6.0 | 0.00 | 0.00 | 0.00 | 66 | 1006.3 |
| 20260505231312 | 81 | 215 | 2.0 | 8.0 | 0.00 | 0.00 | 0.00 | 66 | 1006.3 |
| 20260505230810 | 82 | 19 | 6.0 | 8.0 | 0.00 | 0.00 | 0.00 | 65 | 1006.3 |
| 20260505230306 | 84 | 336 | 6.0 | 11.0 | 0.00 | 0.00 | 0.00 | 63 | 1006.0 |
| 20260505225803 | 84 | 304 | 3.0 | 7.0 | 0.00 | 0.00 | 0.00 | 60 | 1005.7 |
| 20260505225300 | 84 | 173 | 3.0 | 5.0 | 0.00 | 0.00 | 0.00 | 57 | 1006.0 |
| 20260505224755 | 84 | 350 | 1.0 | 7.0 | 0.00 | 0.00 | 0.00 | 56 | 1006.0 |
| 20260505224253 | 84 | 294 | 7.0 | 10.0 | 0.00 | 0.00 | 0.00 | 54 | 1006.0 |
| 20260505223750 | 86 | 183 | 5.0 | 9.0 | 0.00 | 0.00 | 0.00 | 54 | 1005.7 |
| 20260505223247 | 86 | 136 | 3.0 | 6.0 | 0.00 | 0.00 | 0.00 | 53 | 1005.7 |
| 20260505222743 | 86 | 118 | 2.0 | 7.0 | 0.00 | 0.00 | 0.00 | 53 | 1005.7 |
| 20260505222239 | 87 | 341 | 6.0 | 8.0 | 0.00 | 0.00 | 0.00 | 52 | 1005.7 |
| 20260505221736 | 89 | 267 | 5.0 | 8.0 | 0.00 | 0.00 | 0.00 | 52 | 1005.7 |
| 20260505221233 | 92 | 171 | 1.0 | 1.0 | 0.00 | 0.00 | 0.00 | 50 | 1005.3 |
| 20260505220729 | 92 | 251 | 3.0 | 3.0 | 0.00 | 0.00 | 0.00 | 51 | 1005.3 |
| 20260505220227 | 91 | 202 | 1.0 | 2.0 | 0.00 | 0.00 | 0.00 | 52 | 1005.0 |
| 20260505215725 | 90 | 216 | 1.0 | 3.0 | 0.00 | 0.00 | 0.00 | 52 | 1005.3 |
| 20260505215223 | 90 | 292 | 3.0 | 3.0 | 0.00 | 0.00 | 0.00 | 52 | 1005.3 |
| 20260505214720 | 90 | 202 | 1.0 | 3.0 | 0.00 | 0.00 | 0.00 | 53 | 1005.3 |
| 20260505214218 | 90 | 175 | 2.0 | 2.0 | 0.00 | 0.00 | 0.00 | 52 | 1005.7 |
| 20260505213715 | 90 | 240 | 2.0 | 3.0 | 0.00 | 0.00 | 0.00 | 51 | 1005.3 |
| 20260505213212 | 91 | 248 | 2.0 | 3.0 | 0.00 | 0.00 | 0.00 | 50 | 1005.7 |
| 20260505212708 | 91 | 300 | 2.0 | 6.0 | 0.00 | 0.00 | 0.00 | 52 | 1005.7 |
| 20260505212205 | 91 | 311 | 4.0 | 6.0 | 0.00 | 0.00 | 0.00 | 50 | 1005.7 |
| 20260505211702 | 91 | 244 | 1.0 | 5.0 | 0.00 | 0.00 | 0.00 | 50 | 1005.7 |
| 20260505211159 | 91 | 190 | 1.0 | 5.0 | 0.00 | 0.00 | 0.00 | 51 | 1005.7 |
| 20260505210656 | 91 | 354 | 4.0 | 7.0 | 0.00 | 0.00 | 0.00 | 48 | 1005.7 |
| 20260505210153 | 92 | 298 | 3.0 | 5.0 | 0.00 | 0.00 | 0.00 | 49 | 1005.7 |
| 20260505205650 | 92 | 299 | 3.0 | 5.0 | 0.00 | 0.00 | 0.00 | 49 | 1006.0 |
| 20260505205148 | 92 | 284 | 4.0 | 6.0 | 0.00 | 0.00 | 0.00 | 49 | 1006.0 |
| 20260505204644 | 92 | 184 | 3.0 | 5.0 | 0.00 | 0.00 | 0.00 | 52 | 1006.0 |
| 20260505204143 | 92 | 204 | 2.0 | 5.0 | 0.00 | 0.00 | 0.00 | 52 | 1006.0 |
| 20260505203639 | 92 | 234 | 1.0 | 3.0 | 0.00 | 0.00 | 0.00 | 51 | 1006.3 |
| 20260505203136 | 92 | 241 | 2.0 | 3.0 | 0.00 | 0.00 | 0.00 | 51 | 1006.0 |
| 20260505202632 | 92 | 215 | 2.0 | 6.0 | 0.00 | 0.00 | 0.00 | 53 | 1006.3 |
| 20260505202128 | 91 | 134 | 2.0 | 3.0 | 0.00 | 0.00 | 0.00 | 51 | 1006.0 |
| 20260505201625 | 92 | 246 | 5.0 | 8.0 | 0.00 | 0.00 | 0.00 | 51 | 1006.3 |
| 20260505201123 | 92 | 209 | 2.0 | 2.0 | 0.00 | 0.00 | 0.00 | 54 | 1006.7 |
| 20260505200620 | 91 | 204 | 2.0 | 6.0 | 0.00 | 0.00 | 0.00 | 53 | 1006.3 |
| 20260505200117 | 90 | 212 | 3.0 | 5.0 | 0.00 | 0.00 | 0.00 | 52 | 1006.3 |
| 20260505195608 | 91 | 200 | 4.0 | 7.0 | 0.00 | 0.00 | 0.00 | 52 | 1006.3 |
| 20260505195105 | 91 | 202 | 1.0 | 5.0 | 0.00 | 0.00 | 0.00 | 55 | 1006.3 |
| 20260505194556 | 91 | 233 | 2.0 | 6.0 | 0.00 | 0.00 | 0.00 | 55 | 1006.7 |
| 20260505194052 | 91 | 185 | 4.0 | 7.0 | 0.00 | 0.00 | 0.00 | 54 | 1006.7 |
| 20260505193549 | 91 | 197 | 1.0 | 2.0 | 0.00 | 0.00 | 0.00 | 56 | 1006.7 |
| 20260505193046 | 90 | 197 | 3.0 | 7.0 | 0.00 | 0.00 | 0.00 | 56 | 1006.7 |
| 20260505192545 | 91 | 251 | 2.0 | 9.0 | 0.00 | 0.00 | 0.00 | 56 | 1006.7 |
| 20260505192042 | 91 | 201 | 2.0 | 3.0 | 0.00 | 0.00 | 0.00 | 56 | 1006.7 |
| 20260505191540 | 90 | 179 | 2.0 | 7.0 | 0.00 | 0.00 | 0.00 | 56 | 1006.7 |
| 20260505191038 | 90 | 318 | 3.0 | 10.0 | 0.00 | 0.00 | 0.00 | 57 | 1006.7 |
| 20260505190537 | 89 | 190 | 2.0 | 6.0 | 0.00 | 0.00 | 0.00 | 59 | 1006.7 |
| 20260505190034 | 89 | 294 | 3.0 | 7.0 | 0.00 | 0.00 | 0.00 | 58 | 1006.7 |
| 20260505185531 | 88 | 100 | 3.0 | 11.0 | 0.00 | 0.00 | 0.00 | 59 | 1006.7 |
| 20260505185027 | 88 | 231 | 1.0 | 3.0 | 0.00 | 0.00 | 0.00 | 59 | 1006.7 |
| 20260505184524 | 89 | 214 | 5.0 | 8.0 | 0.00 | 0.00 | 0.00 | 60 | 1006.7 |
| 20260505184021 | 88 | 96 | 3.0 | 8.0 | 0.00 | 0.00 | 0.00 | 59 | 1006.7 |
| 20260505183518 | 88 | 207 | 5.0 | 6.0 | 0.00 | 0.00 | 0.00 | 62 | 1007.0 |
| 20260505183015 | 88 | 136 | 2.0 | 8.0 | 0.00 | 0.00 | 0.00 | 64 | 1007.0 |
| 20260505182511 | 87 | 220 | 3.0 | 6.0 | 0.00 | 0.00 | 0.00 | 64 | 1006.7 |
| 20260505182009 | 87 | 334 | 3.0 | 8.0 | 0.00 | 0.00 | 0.00 | 64 | 1007.0 |
| 20260505181505 | 87 | 184 | 6.0 | 9.0 | 0.00 | 0.00 | 0.00 | 65 | 1007.0 |
| 20260505181002 | 87 | 214 | 4.0 | 7.0 | 0.00 | 0.00 | 0.00 | 65 | 1007.0 |
| 20260505180457 | 87 | 27 | 2.0 | 8.0 | 0.00 | 0.00 | 0.00 | 66 | 1007.0 |
| 20260505175955 | 86 | 155 | 1.0 | 7.0 | 0.00 | 0.00 | 0.00 | 69 | 1007.0 |
| 20260505175451 | 85 | 172 | 2.0 | 8.0 | 0.00 | 0.00 | 0.00 | 69 | 1007.0 |
| 20260505174948 | 86 | 123 | 3.0 | 7.0 | 0.00 | 0.00 | 0.00 | 69 | 1007.0 |
| 20260505174445 | 86 | 146 | 3.0 | 3.0 | 0.00 | 0.00 | 0.00 | 70 | 1007.4 |
| 20260505173941 | 84 | 186 | 3.0 | 6.0 | 0.00 | 0.00 | 0.00 | 69 | 1007.4 |
| 20260505173437 | 84 | 166 | 1.0 | 8.0 | 0.00 | 0.00 | 0.00 | 70 | 1007.4 |
| 20260505172934 | 84 | 163 | 3.0 | 5.0 | 0.00 | 0.00 | 0.00 | 71 | 1007.4 |
| 20260505172433 | 84 | 174 | 5.0 | 7.0 | 0.00 | 0.00 | 0.00 | 71 | 1007.4 |
| 20260505171932 | 83 | 191 | 4.0 | 7.0 | 0.00 | 0.00 | 0.00 | 72 | 1007.7 |
| 20260505171429 | 82 | 212 | 5.0 | 8.0 | 0.00 | 0.00 | 0.00 | 73 | 1007.4 |
| 20260505170926 | 82 | 194 | 2.0 | 7.0 | 0.00 | 0.00 | 0.00 | 74 | 1007.4 |
| 20260505170422 | 82 | 359 | 2.0 | 5.0 | 0.00 | 0.00 | 0.00 | 74 | 1007.4 |
| 20260505165918 | 82 | 174 | 2.0 | 5.0 | 0.00 | 0.00 | 0.00 | 74 | 1007.0 |
| 20260505165414 | 82 | 211 | 4.0 | 7.0 | 0.00 | 0.00 | 0.00 | 74 | 1007.7 |
| 20260505164909 | 82 | 189 | 3.0 | 6.0 | 0.00 | 0.00 | 0.00 | 74 | 1007.4 |
| 20260505164406 | 82 | 198 | 1.0 | 8.0 | 0.00 | 0.00 | 0.00 | 75 | 1007.4 |
| 20260505163904 | 82 | 186 | 4.0 | 7.0 | 0.00 | 0.00 | 0.00 | 75 | 1007.0 |
| 20260505163403 | 82 | 253 | 3.0 | 8.0 | 0.00 | 0.00 | 0.00 | 75 | 1007.0 |
| 20260505162901 | 82 | 159 | 2.0 | 3.0 | 0.00 | 0.00 | 0.00 | 75 | 1007.0 |
| 20260505162357 | 81 | 277 | 2.0 | 6.0 | 0.00 | 0.00 | 0.00 | 77 | 1007.0 |
| 20260505161854 | 80 | 83 | 3.0 | 8.0 | 0.00 | 0.00 | 0.00 | 77 | 1007.0 |
| 20260505161351 | 80 | 177 | 5.0 | 6.0 | 0.00 | 0.00 | 0.00 | 77 | 1006.7 |
| 20260505160848 | 80 | 210 | 2.0 | 5.0 | 0.00 | 0.00 | 0.00 | 78 | 1007.0 |
| 20260505160347 | 80 | 245 | 2.0 | 6.0 | 0.00 | 0.00 | 0.00 | 78 | 1006.7 |
| 20260505153325 | 77 | 197 | 1.0 | 7.0 | 0.00 | 0.00 | 0.00 | 82 | 1006.7 |
| 20260505152822 | 77 | 203 | 2.0 | 3.0 | 0.00 | 0.00 | 0.00 | 83 | 1006.7 |
| 20260505152319 | 76 | 225 | 2.0 | 8.0 | 0.00 | 0.00 | 0.00 | 83 | 1007.0 |
| 20260505151813 | 76 | 219 | 3.0 | 8.0 | 0.00 | 0.00 | 0.00 | 83 | 1007.0 |
| 20260505151310 | 76 | 246 | 6.0 | 9.0 | 0.00 | 0.00 | 0.00 | 83 | 1007.0 |
| 20260505150807 | 77 | 204 | 4.0 | 8.0 | 0.00 | 0.00 | 0.00 | 83 | 1007.0 |
| 20260505150304 | 76 | 300 | 3.0 | 9.0 | 0.00 | 0.00 | 0.00 | 83 | 1007.0 |
| 20260505140229 | 73 | 220 | 3.0 | 8.0 | 0.00 | 0.00 | 0.00 | 89 | 1006.7 |
| 20260505130152 | 71 | 248 | 5.0 | 7.0 | 0.00 | 0.00 | 0.00 | 92 | 1006.3 |
| 20260505124637 | 70 | 174 | 3.0 | 7.0 | 0.00 | 0.00 | 0.00 | 93 | 1006.3 |
| 20260505124134 | 70 | 166 | 2.0 | 6.0 | 0.00 | 0.00 | 0.00 | 93 | 1006.3 |
| 20260505123629 | 70 | 254 | 7.0 | 10.0 | 0.00 | 0.00 | 0.00 | 93 | 1006.0 |
| 20260505123126 | 70 | 185 | 3.0 | 6.0 | 0.00 | 0.00 | 0.00 | 93 | 1006.3 |
| 20260505122622 | 70 | 99 | 1.0 | 13.0 | 0.00 | 0.00 | 0.00 | 93 | 1006.0 |
| 20260505122120 | 70 | 157 | 3.0 | 8.0 | 0.00 | 0.00 | 0.00 | 93 | 1006.0 |
| 20260505121616 | 70 | 193 | 3.0 | 6.0 | 0.00 | 0.00 | 0.00 | 93 | 1006.0 |
| 20260505121113 | 70 | 210 | 4.0 | 7.0 | 0.00 | 0.00 | 0.00 | 93 | 1006.0 |
| 20260505120609 | 70 | 163 | 1.0 | 5.0 | 0.00 | 0.00 | 0.00 | 93 | 1006.0 |
| 20260505120105 | 70 | 155 | 1.0 | 3.0 | 0.00 | 0.00 | 0.00 | 93 | 1006.0 |
| 20260505115600 | 70 | 182 | 3.0 | 6.0 | 0.00 | 0.00 | 0.00 | 93 | 1006.0 |
| 20260505115057 | 70 | 159 | 2.0 | 5.0 | 0.00 | 0.00 | 0.00 | 93 | 1005.7 |
| 20260505114549 | 70 | 205 | 2.0 | 8.0 | 0.00 | 0.00 | 0.00 | 93 | 1005.7 |
| 20260505114045 | 70 | 203 | 4.0 | 11.0 | 0.00 | 0.00 | 0.00 | 93 | 1006.0 |
| 20260505113541 | 70 | 230 | 2.0 | 6.0 | 0.00 | 0.00 | 0.00 | 93 | 1006.0 |
| 20260505113038 | 70 | 219 | 1.0 | 5.0 | 0.00 | 0.00 | 0.00 | 93 | 1005.7 |
| 20260505112535 | 70 | 266 | 4.0 | 6.0 | 0.00 | 0.00 | 0.00 | 93 | 1006.0 |
| 20260505112033 | 70 | 248 | 1.0 | 7.0 | 0.00 | 0.00 | 0.00 | 93 | 1005.7 |
| 20260505111531 | 70 | 184 | 2.0 | 6.0 | 0.00 | 0.00 | 0.00 | 93 | 1005.7 |
| 20260505111028 | 70 | 171 | 4.0 | 6.0 | 0.00 | 0.00 | 0.00 | 93 | 1005.7 |
| 20260505110525 | 70 | 193 | 1.0 | 3.0 | 0.00 | 0.00 | 0.00 | 93 | 1005.7 |
| 20260505101952 | 69 | 167 | 2.0 | 3.0 | 0.00 | 0.00 | 0.00 | 94 | 1005.7 |
| 20260505101449 | 69 | 272 | 2.0 | 7.0 | 0.00 | 0.00 | 0.00 | 94 | 1005.7 |
| 20260505100945 | 69 | 232 | 1.0 | 6.0 | 0.00 | 0.00 | 0.00 | 94 | 1005.7 |
| 20260505100443 | 69 | 275 | 3.0 | 5.0 | 0.00 | 0.00 | 0.00 | 94 | 1005.7 |
| 20260505095939 | 69 | 195 | 2.0 | 5.0 | 0.00 | 0.00 | 0.00 | 94 | 1006.0 |
| 20260505095436 | 69 | 218 | 2.0 | 5.0 | 0.00 | 0.00 | 0.00 | 94 | 1006.0 |
| 20260505094932 | 69 | 220 | 1.0 | 5.0 | 0.00 | 0.00 | 0.00 | 94 | 1005.7 |
| 20260505094429 | 69 | 207 | 1.0 | 7.0 | 0.00 | 0.00 | 0.00 | 94 | 1006.0 |
| 20260505093925 | 69 | 135 | 2.0 | 3.0 | 0.00 | 0.00 | 0.00 | 94 | 1006.0 |
| 20260505093422 | 69 | 190 | 0.0 | 1.0 | 0.00 | 0.00 | 0.00 | 94 | 1006.0 |
| 20260505092920 | 69 | 221 | 1.0 | 6.0 | 0.00 | 0.00 | 0.00 | 94 | 1006.0 |
| 20260505092418 | 69 | 202 | 2.0 | 6.0 | 0.00 | 0.00 | 0.00 | 93 | 1006.0 |
| 20260505091915 | 69 | 195 | 2.0 | 6.0 | 0.00 | 0.00 | 0.00 | 93 | 1006.3 |
| 20260505091412 | 69 | 199 | 1.0 | 2.0 | 0.00 | 0.00 | 0.00 | 93 | 1006.0 |
| 20260505090910 | 69 | 209 | 2.0 | 3.0 | 0.00 | 0.00 | 0.00 | 93 | 1006.3 |
| 20260505090408 | 69 | 173 | 3.0 | 6.0 | 0.00 | 0.00 | 0.00 | 93 | 1006.3 |
| 20260505085905 | 69 | 177 | 1.0 | 2.0 | 0.00 | 0.00 | 0.00 | 93 | 1006.3 |
| 20260505085402 | 70 | 182 | 1.0 | 3.0 | 0.00 | 0.00 | 0.00 | 92 | 1006.3 |
| 20260505084901 | 70 | 200 | 2.0 | 6.0 | 0.00 | 0.00 | 0.00 | 92 | 1006.3 |
| 20260505084359 | 70 | 42 | 3.0 | 3.0 | 0.00 | 0.00 | 0.00 | 92 | 1006.0 |
| 20260505083856 | 70 | 206 | 2.0 | 5.0 | 0.00 | 0.00 | 0.00 | 92 | 1006.3 |
| 20260505083353 | 70 | 223 | 3.0 | 6.0 | 0.00 | 0.00 | 0.00 | 91 | 1006.3 |
| 20260505082849 | 70 | 177 | 1.0 | 3.0 | 0.00 | 0.00 | 0.00 | 91 | 1006.3 |
| 20260505082345 | 70 | 205 | 3.0 | 6.0 | 0.00 | 0.00 | 0.00 | 91 | 1006.3 |
| 20260505081842 | 70 | 126 | 5.0 | 7.0 | 0.00 | 0.00 | 0.00 | 90 | 1006.3 |
| 20260505081339 | 71 | 223 | 3.0 | 5.0 | 0.00 | 0.00 | 0.00 | 90 | 1006.3 |
| 20260505080836 | 71 | 147 | 2.0 | 6.0 | 0.00 | 0.00 | 0.00 | 89 | 1006.7 |
| 20260505080331 | 71 | 206 | 1.0 | 2.0 | 0.00 | 0.00 | 0.00 | 89 | 1006.3 |
| 20260505075827 | 71 | 175 | 2.0 | 6.0 | 0.00 | 0.00 | 0.00 | 88 | 1006.3 |
| 20260505075324 | 71 | 190 | 1.0 | 5.0 | 0.00 | 0.00 | 0.00 | 88 | 1006.3 |
| 20260505074822 | 71 | 189 | 2.0 | 8.0 | 0.00 | 0.00 | 0.00 | 88 | 1006.7 |
| 20260505074319 | 71 | 199 | 1.0 | 5.0 | 0.00 | 0.00 | 0.00 | 87 | 1006.7 |
| 20260505073816 | 71 | 299 | 3.0 | 7.0 | 0.00 | 0.00 | 0.00 | 87 | 1006.7 |
| 20260505073314 | 71 | 215 | 3.0 | 8.0 | 0.00 | 0.00 | 0.00 | 86 | 1006.7 |
| 20260505072810 | 71 | 189 | 0.0 | 5.0 | 0.00 | 0.00 | 0.00 | 86 | 1006.7 |
| 20260505072306 | 71 | 172 | 3.0 | 5.0 | 0.00 | 0.00 | 0.00 | 86 | 1007.0 |
| 20260505071802 | 71 | 186 | 3.0 | 6.0 | 0.00 | 0.00 | 0.00 | 85 | 1007.0 |
| 20260505071259 | 71 | 191 | 4.0 | 5.0 | 0.00 | 0.00 | 0.00 | 85 | 1007.0 |
| 20260505070757 | 71 | 197 | 1.0 | 2.0 | 0.00 | 0.00 | 0.00 | 85 | 1006.7 |
| 20260505070253 | 72 | 222 | 2.0 | 2.0 | 0.00 | 0.00 | 0.00 | 85 | 1007.4 |
| 20260505065748 | 72 | 198 | 2.0 | 7.0 | 0.00 | 0.00 | 0.00 | 85 | 1007.0 |
| 20260505065246 | 72 | 224 | 3.0 | 5.0 | 0.00 | 0.00 | 0.00 | 84 | 1007.4 |
| 20260505064743 | 71 | 149 | 4.0 | 6.0 | 0.00 | 0.00 | 0.00 | 84 | 1007.4 |
| 20260505064240 | 72 | 191 | 1.0 | 6.0 | 0.00 | 0.00 | 0.00 | 84 | 1007.4 |
| 20260505063738 | 72 | 179 | 2.0 | 7.0 | 0.00 | 0.00 | 0.00 | 84 | 1007.4 |
| 20260505063234 | 72 | 153 | 2.0 | 7.0 | 0.00 | 0.00 | 0.00 | 83 | 1007.7 |
| 20260505062730 | 72 | 198 | 2.0 | 6.0 | 0.00 | 0.00 | 0.00 | 83 | 1007.7 |
| 20260505062228 | 72 | 206 | 1.0 | 5.0 | 0.00 | 0.00 | 0.00 | 83 | 1007.7 |
| 20260505061725 | 72 | 222 | 5.0 | 7.0 | 0.00 | 0.00 | 0.00 | 83 | 1007.7 |
| 20260505061223 | 72 | 180 | 2.0 | 3.0 | 0.00 | 0.00 | 0.00 | 83 | 1007.7 |
| 20260505060720 | 72 | 193 | 2.0 | 5.0 | 0.00 | 0.00 | 0.00 | 82 | 1007.7 |
| 20260505060217 | 72 | 159 | 3.0 | 7.0 | 0.00 | 0.00 | 0.00 | 82 | 1007.7 |
| 20260505055712 | 72 | 215 | 2.0 | 6.0 | 0.00 | 0.00 | 0.00 | 82 | 1007.7 |
| 20260505055209 | 72 | 198 | 3.0 | 6.0 | 0.00 | 0.00 | 0.00 | 82 | 1007.4 |
| 20260505054706 | 73 | 56 | 2.0 | 3.0 | 0.00 | 0.00 | 0.00 | 82 | 1007.7 |
| 20260505054204 | 73 | 199 | 3.0 | 5.0 | 0.00 | 0.00 | 0.00 | 82 | 1007.4 |
| 20260505053656 | 73 | 159 | 4.0 | 9.0 | 0.00 | 0.00 | 0.00 | 81 | 1007.4 |
| 20260505053152 | 73 | 184 | 5.0 | 7.0 | 0.00 | 0.00 | 0.00 | 81 | 1007.4 |
| 20260505052649 | 73 | 199 | 5.0 | 8.0 | 0.00 | 0.00 | 0.00 | 81 | 1007.7 |
| 20260505052146 | 73 | 55 | 1.0 | 3.0 | 0.00 | 0.00 | 0.00 | 81 | 1007.0 |
| 20260505051643 | 73 | 160 | 2.0 | 5.0 | 0.00 | 0.00 | 0.00 | 81 | 1007.0 |
| 20260505051141 | 73 | 209 | 2.0 | 3.0 | 0.00 | 0.00 | 0.00 | 81 | 1007.4 |
| 20260505050639 | 73 | 136 | 4.0 | 6.0 | 0.00 | 0.00 | 0.00 | 81 | 1007.7 |
| 20260505050138 | 74 | 189 | 2.0 | 7.0 | 0.00 | 0.00 | 0.00 | 80 | 1007.7 |
| 20260505041612 | 75 | 182 | 3.0 | 8.0 | 0.00 | 0.00 | 0.00 | 78 | 1007.7 |
| 20260505041110 | 75 | 214 | 2.0 | 5.0 | 0.00 | 0.00 | 0.00 | 79 | 1007.7 |
| 20260505040607 | 75 | 147 | 2.0 | 3.0 | 0.00 | 0.00 | 0.00 | 79 | 1007.7 |
| 20260505040104 | 75 | 200 | 3.0 | 5.0 | 0.00 | 0.00 | 0.00 | 78 | 1007.4 |
| 20260505035600 | 75 | 194 | 1.0 | 9.0 | 0.00 | 0.00 | 0.00 | 78 | 1007.7 |
| 20260505035057 | 75 | 242 | 4.0 | 6.0 | 0.00 | 0.00 | 0.00 | 78 | 1007.7 |
| 20260505034553 | 75 | 98 | 2.0 | 6.0 | 0.00 | 0.00 | 0.00 | 78 | 1007.7 |
| 20260505034050 | 75 | 204 | 3.0 | 9.0 | 0.00 | 0.00 | 0.00 | 78 | 1007.7 |
| 20260505033547 | 75 | 218 | 2.0 | 5.0 | 0.00 | 0.00 | 0.00 | 78 | 1007.7 |
| 20260505033045 | 75 | 197 | 3.0 | 7.0 | 0.00 | 0.00 | 0.00 | 78 | 1007.7 |
| 20260505032543 | 75 | 173 | 3.0 | 8.0 | 0.00 | 0.00 | 0.00 | 78 | 1007.4 |
| 20260505032039 | 75 | 198 | 2.0 | 6.0 | 0.00 | 0.00 | 0.00 | 78 | 1007.7 |
| 20260505031537 | 75 | 190 | 2.0 | 6.0 | 0.00 | 0.00 | 0.00 | 78 | 1007.7 |
| 20260505031033 | 75 | 181 | 1.0 | 7.0 | 0.00 | 0.00 | 0.00 | 78 | 1007.7 |
| 20260505030530 | 75 | 213 | 2.0 | 8.0 | 0.00 | 0.00 | 0.00 | 78 | 1007.7 |
| 20260505030026 | 75 | 182 | 2.0 | 6.0 | 0.00 | 0.00 | 0.00 | 77 | 1007.4 |
| 20260505025522 | 75 | 181 | 2.0 | 5.0 | 0.00 | 0.00 | 0.00 | 77 | 1007.7 |
| 20260505025021 | 75 | 206 | 3.0 | 7.0 | 0.00 | 0.00 | 0.00 | 77 | 1007.7 |
| 20260505024517 | 75 | 187 | 3.0 | 6.0 | 0.00 | 0.00 | 0.00 | 77 | 1007.7 |
| 20260505024014 | 76 | 200 | 3.0 | 6.0 | 0.00 | 0.00 | 0.00 | 77 | 1007.7 |
| 20260505023511 | 76 | 203 | 5.0 | 7.0 | 0.00 | 0.00 | 0.00 | 77 | 1007.7 |
| 20260505023009 | 76 | 154 | 2.0 | 3.0 | 0.00 | 0.00 | 0.00 | 77 | 1007.7 |
| 20260505022507 | 76 | 193 | 1.0 | 9.0 | 0.00 | 0.00 | 0.00 | 76 | 1007.7 |
| 20260505022004 | 76 | 190 | 2.0 | 5.0 | 0.00 | 0.00 | 0.00 | 77 | 1007.7 |
| 20260505021500 | 76 | 192 | 1.0 | 3.0 | 0.00 | 0.00 | 0.00 | 76 | 1007.4 |
| 20260505020955 | 76 | 177 | 3.0 | 5.0 | 0.00 | 0.00 | 0.00 | 76 | 1007.4 |
| 20260505020451 | 76 | 179 | 2.0 | 6.0 | 0.00 | 0.00 | 0.00 | 76 | 1007.4 |
| 20260505015948 | 76 | 160 | 1.0 | 3.0 | 0.00 | 0.00 | 0.00 | 76 | 1007.4 |
| 20260505015445 | 76 | 193 | 1.0 | 2.0 | 0.00 | 0.00 | 0.00 | 75 | 1007.7 |
| 20260505014942 | 76 | 199 | 1.0 | 3.0 | 0.00 | 0.00 | 0.00 | 75 | 1007.7 |
| 20260505014439 | 76 | 187 | 1.0 | 5.0 | 0.00 | 0.00 | 0.00 | 75 | 1007.4 |